Regional Weather Roundup
Issued by NWS

Home | Current Version | Previous Version | Text Only | Print | Product List | Glossary On
Versions: 1 2 3 4 5 6 7 8 9 10 11 12 13 14 15 16 17 18 19 20 21 22 23 24 25 26 27 28 29 30 31 32 33 34 35 36 37 38 39 40 41 42 43 44 45 46 47 48 49 50
000
ASUS43 KMKX 010211
RWRWI

WISCONSIN REGIONAL WEATHER ROUNDUP
NATIONAL WEATHER SERVICE MILWAUKEE/SULLIVAN WI
900 PM CDT MON AUG 31 2015

NOTE: "FAIR" INDICATES FEW OR NO CLOUDS BELOW 12,000 FEET WITH NO
SIGNIFICANT WEATHER AND/OR OBSTRUCTIONS TO VISIBILITY.

WIZ001-002-006>008-014>016-023>028-010300-
NORTHWEST WISCONSIN

CITY           SKY/WX    TMP DP  RH WIND       PRES   REMARKS
SUPERIOR ARPT  MOCLDY    73  70  91 SW5       29.86R
ASHLAND        CLEAR     73  70  90 S8        29.90R
HAYWARD        PTCLDY    73  69  87 S6        29.93R
SIREN          PTCLDY    74  70  87 CALM      29.91R
CUMBERLAND     PTCLDY    72  68  88 S6        29.93S
RICE LAKE      MOCLDY    73  69  88 SE7       29.94S
CHETEK         PTCLDY   N/A N/A N/A SE5       29.94R
LADYSMITH      CLEAR     72  69  91 SE5       29.97R
EAU CLAIRE     CLEAR     76  70  82 S8        29.93R
MENOMONIE      PTCLDY    74  71  90 SE5       29.93R
NEW RICHMOND   PTCLDY    74  72  91 S6        29.92R
OSCEOLA        CLEAR     74  74 100 SE5       29.94R
$$

WIZ003>005-009-010-017-018-010300-
NORTH CENTRAL WISCONSIN

CITY           SKY/WX    TMP DP  RH WIND       PRES   REMARKS
MANITOWISH WTR CLEAR     67  67 100 S5        29.98R
ARBOR VITAE    CLEAR     70  67  90 S5        29.99R
WOODRUFF       CLEAR     70  67  90 S5        29.99R
RHINELANDER    CLEAR     68  65  90 S3        30.01R
EAGLE RIVER    CLEAR     67  65  94 CALM      29.99S
LAND O LAKES   CLEAR     69  64  85 S3        30.00R
PHILLIPS       CLEAR     69  67  95 S5        29.97R
TOMAHAWK         N/A     64  62  95 CALM      30.00R FOG
MEDFORD        CLEAR     67  66  99 S6        29.99S FOG
MERRILL        CLEAR     70  69  96 CALM      30.00R
$$

WIZ029-030-035-036-043>047-010300-
CENTRAL WISCONSIN

CITY           SKY/WX    TMP DP  RH WIND       PRES   REMARKS
WAUSAU         CLEAR     71  68  90 S6        29.98R
MOSINEE        NOT AVBL
MARSHFIELD     CLEAR     70  65  84 S5        29.99R
STEVENS POINT  CLEAR     66  65  95 CALM      30.00S
WAUPACA        CLEAR     70  70  98 CALM      30.00R FOG
WAUTOMA        CLEAR     69  69 100 CALM      30.00R FOG
WISC RAPIDS    CLEAR     72  67  84 S5        30.00R
CAMP DOUGLAS   PTCLDY    72  72 100 S3        29.98R
$$

WIZ011>013-019>022-031-037>040-048>050-010300-
NORTHEAST WISCONSIN

CITY           SKY/WX    TMP DP  RH WIND       PRES   REMARKS
ANTIGO         CLEAR     64  63  97 S3        30.02R FOG
SHAWANO        CLEAR     72  69  90 CALM      29.99S
OCONTO         CLEAR     69  69 100 CALM      29.99R
STURGEON BAY   CLEAR     64  61  88 S6        30.02S
GREEN BAY      CLEAR     69  66  90 S5        29.99S FOG
MANITOWOC      CLEAR     60  59  96 MISG      30.03R
APPLETON       PTCLDY    70  66  88 VRB5      29.99S
CLINTONVILLE   CLEAR     68  66  94 CALM      30.00R
OSHKOSH        CLEAR     68  65  90 S6        30.00S FOG
$$

WIZ032>034-041-042-053>061-010300-
SOUTHWEST WISCONSIN

CITY           SKY/WX    TMP DP  RH WIND       PRES   REMARKS
LA CROSSE      CLEAR     76  70  82 SE6       29.95R
SPARTA         CLEAR     71  68  90 CALM      29.98R
VIROQUA          N/A     73  72  96 SE6       30.00R
BOSCOBEL       CLEAR     74  70  87 CALM      29.98R
PRAIRIE DU CHI CLEAR     75  69  82 E3        29.97R
PLATTEVILLE    CLEAR     74  71  88 SE6       30.00S
$$

WIZ056-057-062-063-064-067-068-010300-
SOUTH CENTRAL WISCONSIN

CITY           SKY/WX    TMP DP  RH WIND       PRES   REMARKS
REEDSBURG      CLEAR     73  69  88 CALM      29.99R
BARABOO/DELLS  CLEAR     71  66  86 S3        30.00S
LONE ROCK      CLEAR     71  67  87 CALM      30.00R
MINERAL POINT  CLEAR     73  68  83 SE3       30.01S
MADISON        CLEAR     70  67  90 CALM      30.01R
MIDDLETON      CLEAR     68  67  97 CALM      30.02R
WATERTOWN      CLEAR     69  69 100 CALM      30.01S
MONROE         CLEAR     73  68  83 SE7       30.02R
JANESVILLE     CLEAR     73  70  88 CALM      30.01R
$$

WIZ051-052-058>065-066-070>072-010300-
SOUTHEAST WISCONSIN

CITY           SKY/WX    TMP DP  RH WIND       PRES   REMARKS
MILWAUKEE      PTCLDY    70  65  84 S8        30.03R
WAUKESHA       CLEAR     70  66  88 SW6       30.03S
MILWAUKEE/TIMM CLEAR     73  66  78 SE3       30.03R
RACINE         CLEAR     70  65  84 S6        30.05R
BURLINGTON     FOG       66  65  97 CALM      30.03R VSB 1/2
KENOSHA        CLEAR     70  65  84 SE5       30.04R
FOND DU LAC    CLEAR     68  66  93 S5        30.01R
SHEBOYGAN      CLEAR     66  64  93 S3        30.02R
WEST BEND      CLEAR     68  64  88 CALM      30.03R
JUNEAU         CLEAR     70  67  90 CALM      30.03R
$$

LSZ147-162-010300-
LAKE SUPERIOR

STATION/POSITION TIME  TEMP    WIND        PRES    WAVE
                       AIR SEA DIR/SP/G            HT/PER
                 (UTC) (F)     (DEG/KT/KT) (MB)    (FT/S)
W MID LAKE BUOY  0150   61 55  190/ 10/ 10 1011.2R   1
DEVILS ISLAND    0200   75     190/  8/ 11 1011.0R
PORT WING        0100   76     170/  7/  8 1011.2
SAXON HARBOR     0100   76     200/  6/ 10 1011.2R
$$

LMZ867-665-643>646-010300-
LAKE MICHIGAN

STATION/POSITION TIME  TEMP    WIND        PRES    WAVE
                       AIR SEA DIR/SP/G            HT/PER
                 (UTC) (F)     (DEG/KT/KT) (MB)    (FT/S)
CHAMBERS ISLAND  0100   71     180/  5/ 10 1014.9R
S GREEN BAY BUOY 0100   67 64  180/  6/  8 1016.5R
N MID LAKE BUOY  0150   66 65  210/ 16/ 17 1015.3R   3/ 4
NORTHPORT PIER   0100   63     160/  4/ 15 1014.9R
KEWAUNEE LAKESHO 0100   54     170/  8/  9 1015.0R
SHEBOYGAN LAKESH 0200   63     180/ 13/ 14 1016.9R
PORT WASHINGTON  0100   59      CALM  /  2 1017.3R
ATWATER BUOY     0200   57 52  180/  6/  6 1018.0R
MILWAUKEE LAKESH 0110   60     200/  2/  3   N/A
S MID LAKE BUOY  0150   70 70  130/  6/  6   N/A
KENOSHA   LAKESH 0200   68     180/  7/  8 1016.6R
$$

TC  - TEMPERATURE IN CELSIUS
VSB - VISIBILITY IN STATUTE MILES
WCI - WIND CHILL INDEX
HX  - HEAT INDEX




USA.gov is the U.S. government's official web portal to all federal, state and local government web resources and services.